QPF
0.00 0.00 0.00 0.00 0.03 0.11 0.24 0.35 0.15 0.08 0.04 0.08 0.29 0.33 0.18 0.03 0.00 0.00 0.00 0.00 0.00 0.00 0.00 0.00 0.00 0.00 0.00 0.00 0.00 0.00 0.00 0.00
0.00 0.00 0.00 0.00 0.03 0.12 0.33 0.27 0.11 0.02 0.00 0.04 0.20 0.35 0.23 0.07 0.00 0.00 0.00 0.00 0.00 0.00 0.00 0.00 0.00 0.00 0.00 0.00 0.00 0.00 0.00 0.00
0.00 0.00 0.00 0.00 0.02 0.09 0.20 0.13 0.12 0.05 0.00 0.01 0.16 0.34 0.27 0.08 0.00 0.00 0.00 0.00 0.00 0.00 0.00 0.00 0.00 0.00 0.00 0.00 0.00 0.00 0.00 0.00
0.00 0.00 0.01 0.03 0.03 0.10 0.10 0.08 0.03 0.00 0.00 0.00 0.09 0.22 0.18 0.03 0.00 0.00 0.00 0.00 0.00 0.00 0.00 0.00 0.00 0.00 0.00 0.00 0.00 0.00 0.00 0.00
0.00 0.00 0.01 0.04 0.06 0.14 0.07 0.03 0.00 0.00 0.00 0.00 0.04 0.13 0.09 0.01 0.00 0.00 0.00 0.00 0.00 0.00 0.00 0.00 0.00 0.00 0.00 0.00 0.00 0.00 0.00 0.00
0.00 0.00 0.00 0.01 0.07 0.13 0.06 0.03 0.01 0.00 0.01 0.01 0.02 0.03 0.02 0.00 0.00 0.00 0.00 0.00 0.00 0.00 0.00 0.00 0.00 0.00 0.00 0.00 0.00 0.00 0.00 0.00
0.00 0.00 0.00 0.00 0.02 0.10 0.12 0.04 0.01 0.00 0.05 0.04 0.02 0.00 0.00 0.00 0.00 0.00 0.00 0.00 0.00 0.00 0.00 0.00 0.00 0.00 0.00 0.00 0.00 0.00 0.00 0.00
0.00 0.00 0.00 0.00 0.01 0.06 0.19 0.08 0.03 0.01 0.04 0.04 0.02 0.00 0.00 0.00 0.00 0.00 0.00 0.00 0.00 0.00 0.00 0.00 0.00 0.00 0.00 0.00 0.00 0.00 0.00 0.00
0.00 0.00 0.00 0.00 0.01 0.03 0.09 0.11 0.05 0.02 0.02 0.01 0.00 0.00 0.00 0.00 0.00 0.00 0.00 0.00 0.00 0.00 0.00 0.00 0.00 0.00 0.00 0.00 0.00 0.00 0.00 0.00
0.00 0.00 0.00 0.00 0.00 0.01 0.04 0.07 0.05 0.02 0.01 0.00 0.00 0.00 0.00 0.00 0.00 0.00 0.00 0.00 0.00 0.00 0.00 0.00 0.00 0.00 0.00 0.00 0.00 0.00 0.00 0.00
0.00 0.00 0.00 0.00 0.00 0.01 0.04 0.06 0.04 0.01 0.00 0.00 0.00 0.00 0.00 0.00 0.00 0.00 0.00 0.00 0.00 0.00 0.00 0.00 0.00 0.00 0.00 0.00 0.00 0.00 0.00 0.00
0.00 0.00 0.00 0.00 0.00 0.00 0.03 0.06 0.04 0.01 0.00 0.00 0.00 0.00 0.00 0.00 0.00 0.00 0.00 0.00 0.00 0.00 0.00 0.00 0.00 0.00 0.00 0.00 0.00 0.00 0.00 0.00
0.00 0.00 0.00 0.00 0.00 0.00 0.01 0.02 0.02 0.01 0.00 0.00 0.00 0.00 0.00 0.00 0.00 0.00 0.00 0.00 0.00 0.00 0.00 0.00 0.00 0.00 0.00 0.00 0.00 0.00 0.00 0.00
0.00 0.00 0.00 0.00 0.00 0.00 0.00 0.00 0.00 0.01 0.00 0.00 0.00 0.00 0.00 0.00 0.00 0.00 0.00 0.00 0.00 0.00 0.00 0.00 0.00 0.00 0.00 0.00 0.00 0.00 0.00 0.00
0.00 0.00 0.00 0.00 0.00 0.00 0.00 0.00 0.00 0.00 0.00 0.00 0.00 0.00 0.00 0.00 0.00 0.00 0.00 0.00 0.00 0.00 0.00 0.00 0.00 0.00 0.00 0.00 0.00 0.00 0.00 0.00
0.00 0.00 0.00 0.00 0.00 0.00 0.00 0.00 0.00 0.00 0.00 0.00 0.00 0.00 0.00 0.00 0.00 0.00 0.00 0.00 0.00 0.00 0.00 0.00 0.00 0.00 0.00 0.00 0.00 0.00 0.00 0.00
0.00 0.00 0.00 0.00 0.00 0.00 0.00 0.00 0.00 0.00 0.00 0.00 0.00 0.00 0.00 0.00 0.00 0.00 0.00 0.00 0.00 0.00 0.00 0.00 0.00 0.00 0.00 0.00 0.00 0.00 0.00 0.00
0.00 0.00 0.00 0.00 0.00 0.00 0.00 0.00 0.00 0.00 0.00 0.00 0.00 0.00 0.00 0.00 0.00 0.00 0.00 0.00 0.00 0.00 0.00 0.00 0.00 0.01 0.01 0.00 0.00 0.00 0.00 0.00
0.00 0.00 0.00 0.00 0.00 0.00 0.00 0.00 0.00 0.00 0.00 0.00 0.00 0.00 0.00 0.00 0.00 0.00 0.00 0.01 0.00 0.00 0.00 0.00 0.01 0.01 0.01 0.01 0.00 0.00 0.00 0.00
0.00 0.00 0.00 0.00 0.00 0.00 0.00 0.00 0.00 0.00 0.00 0.00 0.00 0.00 0.00 0.00 0.00 0.00 0.00 0.00 0.00 0.01 0.02 0.02 0.01 0.01 0.00 0.00 0.00 0.00 0.00 0.00
MSLP
1008.66 1008.97 1009.20 1009.32 1009.66 1010.12 1011.15 1011.76 1011.64 1011.91 1013.76 1013.97 1016.25 1014.82 1014.75 1014.56 1014.85 1014.93 1015.50 1016.01 1016.75 1017.47 1017.78 1017.99 1018.41 1018.78 1019.41 1019.95 1020.24 1020.65 1021.23 1021.60
1008.60 1008.90 1009.21 1009.52 1009.81 1010.32 1010.63 1010.81 1010.43 1011.67 1012.72 1013.95 1014.70 1015.41 1014.99 1015.22 1015.44 1015.39 1015.89 1016.26 1016.96 1017.57 1017.85 1018.22 1018.66 1018.92 1019.62 1020.17 1020.51 1021.00 1021.40 1021.84
1008.40 1008.76 1009.09 1009.64 1009.99 1010.43 1010.73 1010.79 1011.25 1011.85 1012.36 1012.85 1013.95 1015.09 1015.34 1015.44 1015.66 1015.81 1015.98 1016.59 1017.20 1017.75 1018.00 1018.52 1018.72 1019.22 1019.82 1020.34 1020.76 1021.20 1021.51 1022.13
1008.35 1008.80 1009.06 1009.38 1009.84 1010.39 1010.82 1011.31 1011.93 1012.24 1012.62 1012.93 1013.35 1014.58 1015.16 1015.32 1015.72 1016.06 1016.41 1016.66 1017.28 1017.72 1018.15 1018.55 1018.98 1019.69 1020.12 1020.43 1021.11 1021.38 1021.80 1022.39
1008.30 1008.73 1008.97 1009.30 1009.80 1010.20 1010.90 1011.26 1011.62 1012.05 1012.51 1013.48 1013.60 1014.72 1014.66 1015.50 1016.04 1016.23 1016.77 1017.18 1017.57 1017.93 1018.27 1018.82 1019.13 1019.61 1020.18 1020.66 1021.29 1021.59 1021.99 1022.50
1008.26 1008.59 1008.81 1009.15 1009.47 1010.00 1010.40 1011.05 1011.28 1011.86 1012.40 1013.09 1013.70 1013.94 1014.56 1015.30 1015.82 1016.34 1016.82 1017.38 1017.73 1018.04 1018.52 1018.91 1019.35 1019.59 1020.14 1020.73 1021.10 1021.64 1022.08 1022.54
1008.32 1008.53 1008.59 1008.89 1009.33 1009.85 1010.27 1010.79 1011.16 1011.63 1012.28 1012.50 1013.01 1013.14 1013.92 1015.10 1015.72 1016.31 1017.09 1017.37 1017.67 1018.14 1018.51 1018.91 1019.28 1019.65 1020.07 1020.72 1021.25 1021.82 1022.03 1022.52
1008.34 1008.52 1008.51 1008.71 1009.06 1009.55 1009.85 1010.52 1010.87 1011.21 1011.42 1011.12 1012.66 1012.73 1013.79 1014.76 1015.63 1016.34 1016.95 1017.16 1017.59 1018.14 1018.52 1018.94 1019.26 1019.60 1020.06 1020.87 1021.35 1022.00 1022.14 1022.51
1008.19 1008.40 1008.49 1008.55 1008.78 1009.13 1009.44 1009.91 1010.48 1010.98 1010.86 1011.01 1011.93 1012.76 1013.59 1014.45 1015.35 1016.08 1016.32 1017.34 1017.83 1018.15 1018.57 1018.97 1019.39 1019.77 1020.18 1020.90 1021.52 1022.12 1022.31 1022.47
1007.92 1008.27 1008.50 1008.56 1008.75 1008.84 1009.07 1009.31 1009.81 1010.60 1010.73 1010.87 1012.01 1012.78 1013.42 1014.33 1014.95 1015.70 1016.21 1017.11 1017.63 1018.23 1018.65 1019.00 1019.21 1020.09 1020.41 1020.97 1021.49 1022.17 1022.46 1022.64
1007.67 1008.23 1008.53 1008.63 1008.83 1008.85 1009.00 1009.25 1009.53 1010.14 1010.71 1011.27 1011.79 1012.67 1013.51 1013.87 1014.67 1015.42 1015.68 1016.58 1017.78 1018.21 1018.68 1018.87 1019.32 1019.99 1020.49 1020.97 1021.50 1022.33 1022.61 1022.62
1007.37 1008.04 1008.43 1008.74 1008.86 1009.10 1009.19 1009.29 1009.66 1009.98 1010.51 1011.19 1011.78 1012.48 1013.30 1013.83 1014.65 1015.14 1015.57 1016.74 1017.64 1017.91 1018.44 1018.96 1019.12 1019.69 1020.40 1021.24 1021.75 1022.32 1022.65 1022.78
1007.18 1007.82 1008.41 1008.71 1008.98 1009.15 1009.35 1009.48 1009.74 1010.07 1010.76 1011.37 1011.64 1012.41 1013.00 1013.63 1014.21 1015.18 1015.71 1016.44 1016.99 1017.62 1018.24 1018.80 1019.39 1019.60 1020.62 1021.86 1022.37 1022.55 1022.53 1022.72
1007.01 1007.56 1008.29 1008.58 1008.85 1009.09 1009.22 1009.54 1010.00 1010.20 1010.89 1011.54 1011.82 1012.46 1012.95 1013.39 1014.08 1014.87 1015.84 1016.43 1016.86 1017.24 1017.81 1018.79 1019.15 1019.39 1020.06 1021.24 1022.29 1022.93 1022.72 1022.80
1006.66 1007.26 1008.05 1008.55 1008.83 1009.16 1009.64 1010.09 1010.40 1010.62 1011.09 1011.69 1012.13 1012.65 1013.02 1013.44 1014.04 1014.79 1015.44 1016.00 1016.53 1017.13 1017.49 1017.93 1018.69 1019.38 1019.52 1020.37 1021.68 1022.15 1022.36 1022.68
1006.40 1006.94 1007.61 1008.35 1008.81 1009.10 1009.51 1009.96 1010.44 1010.69 1010.84 1011.54 1012.30 1012.79 1013.10 1013.51 1014.10 1014.65 1015.09 1015.69 1016.08 1016.76 1017.38 1017.64 1017.96 1019.15 1019.81 1019.86 1020.17 1020.40 1022.05 1022.62
1006.17 1006.82 1007.40 1007.93 1008.50 1009.00 1009.48 1009.94 1010.36 1010.83 1011.32 1011.92 1012.41 1012.81 1013.12 1013.31 1013.81 1014.32 1014.82 1015.34 1015.71 1016.22 1017.14 1017.73 1017.77 1018.61 1019.22 1019.84 1020.20 1020.11 1021.03 1021.59
1006.08 1006.67 1007.20 1007.71 1008.21 1008.71 1009.17 1009.71 1010.29 1010.92 1011.34 1011.86 1012.25 1012.54 1013.02 1013.32 1013.72 1014.20 1014.69 1015.17 1015.56 1016.25 1017.12 1017.50 1017.34 1017.73 1018.53 1018.99 1019.57 1019.74 1020.47 1020.97
1005.85 1006.47 1006.92 1007.42 1007.89 1008.29 1008.83 1009.33 1009.94 1010.48 1011.01 1011.41 1011.84 1012.32 1012.83 1013.09 1013.55 1014.13 1014.54 1014.86 1015.38 1016.19 1016.72 1016.74 1017.00 1017.43 1017.96 1018.51 1018.87 1019.15 1019.38 1020.06
1005.31 1006.11 1006.71 1007.23 1007.72 1008.17 1008.60 1008.97 1009.48 1009.93 1010.43 1011.02 1011.30 1011.72 1012.18 1012.55 1013.07 1013.56 1013.99 1014.56 1015.16 1015.77 1016.01 1016.28 1016.70 1017.04 1017.41 1017.89 1018.30 1018.39 1019.03 1019.35
Thickness
5697 5695 5691 5689 5683 5674 5666 5663 5662 5643 5646 5648 5633 5641 5640 5652 5657 5662 5662 5662 5660 5659 5661 5664 5665 5666 5661 5658 5660 5658 5654 5651
5693 5689 5685 5680 5673 5665 5662 5661 5666 5653 5646 5644 5641 5638 5644 5639 5648 5654 5655 5656 5655 5654 5656 5658 5660 5661 5657 5656 5653 5652 5651 5648
5689 5686 5680 5671 5665 5656 5652 5653 5649 5647 5647 5648 5642 5635 5634 5635 5642 5647 5651 5650 5649 5650 5651 5652 5657 5655 5654 5650 5648 5647 5647 5643
5682 5679 5674 5667 5659 5651 5643 5640 5638 5637 5641 5640 5642 5632 5633 5634 5638 5640 5643 5644 5643 5646 5647 5649 5651 5649 5647 5644 5645 5644 5642 5638
5679 5674 5669 5662 5655 5645 5637 5636 5632 5632 5632 5628 5634 5629 5636 5630 5632 5636 5637 5637 5638 5640 5641 5643 5646 5648 5642 5639 5639 5638 5637 5634
5674 5670 5665 5658 5651 5644 5637 5633 5633 5630 5629 5626 5629 5632 5634 5632 5633 5633 5634 5633 5635 5636 5635 5636 5640 5642 5639 5636 5638 5635 5634 5631
5667 5664 5662 5657 5648 5642 5634 5630 5628 5627 5624 5627 5630 5636 5638 5631 5631 5630 5629 5632 5632 5631 5631 5631 5635 5639 5636 5631 5633 5630 5631 5628
5663 5658 5656 5654 5647 5640 5635 5628 5626 5626 5626 5632 5629 5637 5635 5633 5629 5626 5627 5630 5628 5627 5629 5629 5630 5634 5633 5625 5627 5624 5626 5625
5659 5654 5651 5647 5645 5639 5635 5630 5627 5625 5628 5630 5628 5634 5635 5631 5627 5626 5630 5624 5624 5624 5624 5624 5624 5628 5627 5623 5622 5619 5619 5620
5657 5651 5646 5641 5640 5638 5635 5634 5631 5628 5630 5631 5629 5631 5631 5630 5629 5628 5628 5622 5620 5619 5621 5621 5620 5621 5620 5616 5616 5613 5612 5613
5655 5648 5640 5636 5635 5635 5633 5631 5632 5629 5629 5629 5631 5629 5627 5630 5628 5623 5628 5622 5613 5614 5616 5617 5612 5614 5614 5613 5610 5607 5605 5606
5654 5645 5637 5632 5632 5630 5628 5626 5627 5628 5628 5626 5629 5628 5626 5626 5623 5625 5624 5615 5609 5613 5612 5609 5609 5609 5609 5605 5602 5598 5600 5599
5652 5643 5637 5632 5629 5626 5624 5622 5623 5626 5625 5625 5627 5626 5625 5625 5623 5619 5617 5614 5612 5610 5609 5606 5602 5603 5600 5594 5591 5590 5592 5593
5651 5643 5636 5632 5629 5625 5624 5620 5619 5622 5623 5621 5623 5622 5622 5623 5621 5617 5610 5608 5609 5609 5608 5600 5600 5600 5599 5590 5584 5582 5586 5586
5653 5644 5636 5630 5627 5624 5619 5616 5613 5615 5617 5616 5616 5616 5617 5617 5615 5611 5608 5609 5608 5604 5605 5604 5599 5595 5597 5589 5575 5579 5580 5581
5653 5646 5639 5631 5626 5623 5620 5616 5614 5614 5616 5614 5612 5610 5611 5610 5608 5607 5608 5607 5606 5602 5599 5599 5598 5590 5584 5587 5585 5585 5573 5573
5652 5646 5640 5635 5628 5623 5619 5616 5615 5612 5610 5608 5608 5607 5606 5607 5607 5606 5605 5604 5601 5602 5594 5592 5592 5587 5586 5580 5579 5582 5578 5575
5650 5645 5640 5636 5631 5626 5623 5619 5613 5608 5609 5607 5606 5607 5605 5605 5604 5602 5599 5598 5598 5593 5588 5587 5591 5591 5586 5582 5578 5580 5576 5574
5649 5644 5640 5636 5632 5629 5624 5619 5614 5610 5608 5607 5607 5606 5604 5605 5602 5597 5597 5597 5593 5587 5588 5590 5590 5589 5585 5581 5579 5579 5579 5576
5651 5646 5640 5635 5631 5627 5623 5620 5615 5611 5609 5608 5609 5609 5607 5606 5603 5601 5598 5593 5592 5589 5590 5590 5588 5585 5583 5580 5579 5580 5575 5574